Temperature
12 12 13 13 13 13 13 13 13 14 14 14 14 14 14 14 14 14 14 14 14 14 14 14 15 15 15 15 15 15 15 15 15 15 15 15 15 15 15 15 15 15 15
12 12 12 13 13 13 13 13 13 13 14 14 14 14 14 14 14 14 14 14 14 14 14 14 14 14 14 14 15 15 15 15 15 14 14 14 14 14 14 14 14 14 14
12 12 12 12 12 12 13 13 13 13 13 13 14 14 14 14 14 14 14 14 14 14 14 14 14 14 14 14 14 14 14 14 14 14 14 14 14 14 14 14 14 14 14
12 12 12 12 12 12 13 13 13 13 13 13 13 13 14 14 14 14 14 14 14 14 14 14 14 14 14 14 14 14 14 14 14 14 14 14 14 14 14 14 14 14 14
12 12 12 12 12 12 13 13 13 13 13 13 13 13 13 13 14 14 14 14 14 14 14 14 14 14 14 14 14 14 14 14 14 14 14 14 14 14 14 14 14 14 14
11 12 12 12 12 12 12 12 13 13 13 13 13 13 13 13 13 13 13 14 14 14 13 13 13 13 13 13 13 13 13 13 13 14 13 13 13 13 14 14 13 13 13
11 11 11 12 12 12 12 12 12 12 12 12 12 12 13 13 13 13 13 13 13 13 13 13 13 13 13 13 13 13 13 13 13 13 13 13 13 13 13 13 13 13 13
11 11 11 11 11 11 12 12 12 12 12 12 12 12 12 12 13 13 13 13 13 13 13 13 13 13 13 13 13 13 13 13 13 13 13 13 13 13 13 13 13 13 13
10 11 11 11 11 11 11 11 11 12 12 12 12 12 12 12 12 12 12 12 12 12 12 12 12 12 12 12 12 12 12 13 13 13 13 13 13 13 13 13 13 13 13
10 10 10 11 11 11 11 11 11 11 11 11 11 11 12 12 12 12 12 12 12 12 12 12 12 12 12 12 12 12 12 12 12 12 12 12 12 12 12 12 12 12 12
10 10 10 10 10 10 11 10 10 11 11 11 11 11 11 11 11 11 11 11 12 12 12 11 11 11 11 12 12 12 12 12 12 12 12 12 12 12 12 12 12 12 12
10 10 10 10 10 10 10 10 10 10 10 10 10 10 11 11 11 11 11 11 11 11 11 11 11 11 11 11 11 11 11 11 11 11 11 11 11 12 12 12 11 11 11
9 9 9 9 9 9 10 10 10 10 10 10 10 10 10 10 10 10 10 11 11 11 11 11 11 11 11 11 11 11 11 11 11 11 11 11 11 11 11 11 11 11 11
9 9 9 9 9 9 9 9 9 9 9 9 9 9 9 10 10 10 10 10 10 10 10 10 10 10 10 10 11 11 11 11 11 11 11 11 11 11 11 11 11 11 11
8 8 8 8 8 8 8 9 9 9 9 9 9 9 9 9 9 9 9 9 9 10 10 10 10 10 10 10 10 10 10 10 10 10 10 10 10 10 10 10 10 11 11
8 8 8 8 8 8 8 8 8 8 8 8 8 8 8 8 8 9 9 9 9 9 9 9 9 9 9 9 10 10 10 10 10 10 10 10 10 10 10 10 10 10 10
7 7 7 7 7 7 7 7 7 8 8 8 8 8 8 8 8 8 8 8 8 8 8 8 8 9 9 9 9 9 9 9 9 9 10 10 10 10 10 10 10 10 10
7 7 7 7 7 7 7 7 7 7 7 7 7 7 7 7 7 7 8 8 8 8 8 8 8 8 8 8 8 9 9 9 9 9 9 9 9 9 9 9 9 10 10
6 6 6 6 6 6 6 6 6 6 6 6 7 7 7 7 7 7 7 7 7 7 7 7 7 7 8 8 8 8 8 8 9 9 9 9 9 9 9 9 9 9 9
5 5 5 5 5 5 5 5 5 6 6 6 6 6 6 6 6 6 6 7 7 7 7 7 7 7 7 7 7 7 8 8 8 8 8 8 8 8 8 8 8 9 9
5 5 5 5 5 5 5 5 5 5 5 5 5 5 5 6 6 6 6 6 6 6 6 6 6 6 7 7 7 7 7 7 7 7 7 7 8 8 8 8 8 8 9
4 4 4 4 4 4 4 4 4 4 4 4 4 5 5 5 5 5 5 5 5 5 5 6 6 6 6 6 6 6 6 6 6 6 7 7 7 7 7 7 8 8 8
3 3 3 3 3 3 3 3 3 3 4 4 4 4 4 4 4 4 4 4 5 5 5 5 5 5 5 5 5 5 5 5 5 6 6 6 6 6 7 7 7 7 8
3 3 3 3 3 2 2 3 3 3 3 3 3 3 3 4 4 4 4 4 4 4 4 4 4 4 5 5 5 5 5 5 4 5 5 6 6 6 6 6 6 7 7
2 2 2 2 2 2 2 2 2 2 2 2 2 3 3 3 3 3 3 3 3 3 3 4 4 4 4 4 4 4 4 4 4 4 4 5 5 6 6 6 6 6 6
2 2 2 2 2 2 2 1 1 2 2 2 2 2 2 2 2 3 3 3 3 3 3 3 3 3 3 3 3 3 3 4 4 4 4 4 4 5 5 6 6 6 6
Wind_Speed
1 4 1 4 6 8 9 10 11 11 12 12 12 12 13 13 13 13 13 13 13 13 13 13 13 13 14 14 14 15 15 15 15 15 14 14 14 14 15 15 14 14 16
1 2 2 5 8 9 9 10 11 11 11 11 12 12 12 12 12 12 12 12 13 13 13 13 13 13 13 13 13 14 14 15 15 14 14 13 13 13 13 13 13 13 15
2 2 4 7 9 9 10 10 11 11 11 11 11 12 12 12 12 12 12 12 12 12 13 13 13 13 13 13 13 13 13 14 14 13 12 11 11 12 12 13 13 14 14
3 4 5 8 9 10 10 10 10 10 11 11 11 11 11 11 11 11 12 12 12 12 13 13 12 13 12 12 12 12 13 12 13 12 11 10 10 11 12 12 13 13 14
5 6 6 10 10 10 10 10 10 10 10 10 10 11 11 11 11 11 11 11 11 12 12 12 12 12 12 12 12 12 12 12 12 12 10 10 9 10 11 11 11 12 13
7 8 7 10 10 10 10 10 10 10 10 10 10 10 11 10 10 11 11 11 11 11 11 12 11 11 12 12 11 11 12 11 11 10 10 10 9 9 10 10 10 11 12
6 8 9 10 10 10 10 10 10 10 10 10 10 10 10 10 10 11 10 10 10 10 11 11 11 11 11 11 11 11 11 10 10 9 9 9 8 9 9 9 9 10 10
7 9 10 11 11 10 10 10 10 10 10 10 10 10 10 10 10 10 10 10 10 10 10 10 10 10 10 10 10 10 10 10 9 8 8 8 8 8 7 8 8 8 9
9 10 10 11 11 11 10 11 10 9 9 10 10 11 11 10 10 10 10 9 9 10 9 9 10 9 10 10 10 10 9 9 9 7 6 6 7 7 7 7 7 7 7
9 9 9 11 12 11 11 11 11 10 10 10 10 11 11 10 10 10 9 9 9 9 9 9 10 9 10 10 9 10 9 9 8 7 5 5 6 6 6 6 6 6 6
6 7 8 9 10 11 10 11 11 11 10 10 10 10 10 9 9 9 9 9 8 9 9 9 9 9 9 9 9 9 8 7 7 6 5 4 5 5 5 5 5 5 5
4 4 6 7 8 9 9 10 10 9 10 9 9 9 9 8 8 8 8 8 8 9 9 9 9 9 8 7 7 8 7 6 6 5 4 4 3 3 4 4 4 4 4
2 3 5 5 7 7 7 8 8 8 9 9 9 8 8 8 8 8 8 8 8 8 8 8 9 8 7 6 6 6 6 5 4 4 4 3 2 2 2 3 3 3 3
3 3 3 4 5 6 7 6 7 7 7 8 8 9 7 6 6 7 6 7 7 6 6 6 6 6 6 6 5 5 5 4 4 3 3 3 2 1 1 1 2 3 2
2 2 2 4 4 5 6 5 6 6 7 7 8 8 8 6 5 5 5 5 6 6 5 5 5 5 5 5 4 4 4 4 4 3 3 2 2 2 1 1 1 2 2
2 2 2 3 4 5 5 4 5 6 6 7 8 8 8 7 5 4 4 5 5 5 5 4 3 3 3 3 3 3 3 3 3 3 3 3 3 2 2 2 1 0 1
3 2 2 2 4 4 4 4 5 5 6 6 7 7 7 7 6 5 4 4 4 4 4 4 4 3 3 3 3 3 3 2 3 3 3 3 3 3 2 3 2 2 1
3 3 2 3 4 4 4 4 4 5 5 6 7 7 7 7 6 6 4 4 4 4 3 3 3 2 2 2 2 2 2 2 2 2 3 3 3 3 3 3 3 3 2
3 4 3 3 4 3 4 4 4 5 5 5 6 6 7 6 6 5 4 4 4 4 3 2 2 2 1 2 2 1 2 2 2 2 3 3 4 4 4 3 3 3 3
4 4 4 4 4 3 3 4 3 4 4 5 5 6 6 6 5 5 4 5 4 3 3 3 2 2 1 1 1 1 1 1 2 2 2 3 4 4 4 3 4 3 3
4 4 4 4 3 3 2 2 2 2 2 3 4 5 5 6 6 4 4 4 4 2 2 2 2 2 2 1 1 1 1 0 1 1 2 2 3 4 4 4 3 3 3
3 3 3 3 2 2 1 1 0 0 1 1 3 4 5 5 5 4 3 2 3 2 2 2 2 1 2 2 0 0 1 1 1 1 1 1 1 3 3 3 3 3 3
2 2 2 2 2 2 2 2 2 2 2 2 3 3 5 5 4 4 3 2 2 2 1 2 1 1 1 2 1 0 1 2 2 1 1 1 1 2 2 3 3 3 3
2 2 2 2 2 1 2 2 2 1 1 2 2 3 5 5 4 4 3 3 1 1 1 2 2 1 1 2 2 1 1 1 1 2 2 1 1 2 2 3 3 3 3
2 2 2 2 2 1 1 2 1 0 0 1 2 3 4 4 4 4 3 3 2 2 2 2 2 2 1 2 2 2 2 2 2 2 3 3 2 2 2 3 3 3 3
1 1 1 2 1 1 1 1 2 2 1 1 2 2 3 3 3 3 4 3 3 3 3 3 2 2 2 2 2 2 2 2 2 2 3 3 3 3 3 3 3 3 4
Wind_Direction
294 311 4 70 78 82 81 77 74 71 70 69 69 69 68 68 69 69 68 67 67 68 69 70 74 74 75 76 77 76 74 73 72 72 73 75 79 82 82 81 78 77 81
244 304 92 86 90 85 84 80 76 73 71 70 69 68 68 67 67 66 66 65 67 68 70 69 69 72 74 77 79 78 75 73 70 70 70 72 77 82 82 84 84 84 83
61 53 94 94 94 88 84 83 78 75 73 72 70 68 67 66 65 63 63 64 66 68 69 69 68 70 72 76 79 79 76 74 70 67 68 68 74 83 83 85 86 87 86
70 71 91 96 95 90 84 81 80 76 74 74 71 70 68 67 65 62 63 64 65 67 69 69 69 69 70 74 77 79 78 74 70 67 63 63 71 81 82 83 86 87 87
57 67 93 97 93 92 87 82 78 75 74 75 72 71 69 68 66 63 63 64 65 67 68 69 70 70 70 72 76 78 76 73 70 66 59 58 65 79 80 81 85 87 87
59 61 81 96 95 91 89 83 78 75 73 75 74 72 69 67 66 65 64 63 66 68 68 69 69 69 69 71 75 77 74 71 68 66 61 58 63 75 78 81 85 89 90
65 61 70 85 89 87 85 82 79 75 71 71 71 73 70 68 66 64 64 64 66 67 68 69 70 69 70 71 74 78 74 71 68 66 61 59 63 72 77 81 85 89 92
72 63 66 71 77 80 79 77 76 74 70 68 66 67 68 67 65 62 62 64 66 65 64 67 68 71 71 71 72 75 75 70 69 66 62 61 67 74 78 79 82 86 90
63 60 57 61 65 66 72 72 70 70 68 66 63 61 61 62 62 60 58 61 63 63 61 64 67 72 73 71 70 69 71 69 65 65 65 65 69 73 76 75 78 84 92
58 56 54 57 58 58 59 64 64 63 63 64 62 61 58 58 57 56 54 55 59 60 57 63 62 68 73 70 67 65 64 66 59 60 61 69 73 74 74 75 76 81 97
58 49 51 55 55 56 58 56 59 57 55 58 59 61 58 53 51 51 51 52 54 58 55 60 60 64 69 68 65 63 61 62 56 55 54 64 74 74 74 79 80 82 93
68 51 49 56 55 56 56 53 52 53 50 52 54 57 57 55 51 49 50 52 50 51 52 57 56 60 61 59 57 58 57 56 59 52 51 50 65 73 82 88 85 88 94
103 68 52 53 58 59 58 56 51 49 48 46 48 53 57 54 50 47 45 42 43 46 46 44 49 51 55 57 55 52 52 52 51 45 44 38 46 60 89 105 104 98 106
101 79 59 58 63 61 62 58 56 49 44 41 40 43 51 48 42 41 42 37 38 42 43 40 46 45 49 52 57 53 48 45 40 38 40 34 35 41 66 119 133 126 131
119 97 67 69 71 68 66 59 57 51 46 40 40 39 43 44 39 38 35 36 34 37 41 36 42 41 40 45 48 48 43 33 29 25 17 18 33 43 42 44 176 173 169
137 127 96 83 82 79 71 61 58 55 51 43 36 36 40 39 39 39 37 33 29 31 32 35 34 32 29 41 39 37 36 29 26 17 14 11 21 38 46 35 35 63 205
151 132 122 108 85 82 77 64 59 57 54 47 33 32 38 36 33 35 37 31 21 25 32 36 34 32 24 25 21 24 24 20 27 17 24 28 14 8 25 28 23 16 8
142 129 110 97 83 76 73 70 65 58 53 45 35 30 31 32 31 33 33 24 17 24 33 30 19 11 6 357 346 356 11 22 35 35 40 35 31 21 15 23 27 27 10
141 131 114 94 88 76 67 65 62 58 49 41 37 29 22 23 29 34 29 19 24 29 24 16 13 354 352 342 327 343 8 11 38 53 50 42 42 34 30 20 15 11 4
113 112 108 93 84 76 66 59 50 47 36 34 34 25 19 16 22 33 30 19 25 27 17 10 356 350 341 317 321 340 330 346 51 58 54 43 37 29 35 35 26 7 353
93 98 103 96 88 84 73 65 55 30 9 11 16 19 20 18 18 32 29 22 21 18 1 3 4 353 357 353 19 348 336 314 62 52 33 40 30 21 29 26 19 15 356
120 116 113 109 100 94 89 82 115 98 354 347 357 12 14 16 13 18 29 20 14 9 11 7 18 342 335 352 17 32 310 299 326 316 321 342 8 21 8 356 1 354 345
143 154 147 137 114 96 83 74 53 40 15 9 360 355 356 4 3 6 4 9 8 8 344 319 347 348 308 315 345 153 196 247 294 279 266 282 323 352 354 335 332 331 326
186 171 156 145 124 114 108 107 110 90 320 306 319 324 334 352 357 353 354 353 349 350 311 302 328 302 296 290 315 324 283 248 245 285 291 288 305 299 310 315 301 300 310
176 169 167 147 132 134 130 140 142 140 271 311 322 327 327 336 344 345 338 338 327 308 294 289 301 306 279 277 289 299 308 302 255 252 275 288 294 273 282 287 279 278 285
86 103 148 150 160 166 159 157 172 197 230 290 317 318 317 316 322 327 323 312 311 304 284 270 270 273 274 272 283 276 267 271 267 259 265 275 281 279 281 273 265 262 272
Height
1529 1530 1532 1533 1534 1535 1536 1536 1536 1536 1537 1537 1537 1537 1538 1538 1538 1539 1539 1539 1540 1540 1540 1540 1540 1541 1541 1541 1541 1541 1542 1542 1542 1543 1543 1543 1544 1544 1544 1544 1545 1545 1545
1528 1530 1532 1533 1534 1535 1536 1536 1536 1537 1537 1537 1538 1538 1538 1538 1539 1539 1539 1540 1540 1540 1541 1541 1541 1541 1542 1542 1542 1543 1543 1543 1544 1544 1545 1545 1545 1546 1546 1546 1546 1546 1547
1528 1530 1532 1533 1534 1535 1536 1536 1537 1537 1537 1538 1538 1538 1538 1539 1539 1540 1540 1540 1540 1541 1541 1541 1542 1542 1542 1543 1543 1544 1544 1545 1545 1546 1546 1546 1547 1547 1547 1548 1548 1548 1548
1528 1530 1531 1533 1534 1535 1536 1536 1537 1537 1538 1538 1538 1539 1539 1539 1539 1540 1540 1540 1540 1541 1541 1542 1542 1542 1543 1543 1544 1544 1545 1545 1546 1547 1547 1547 1548 1549 1549 1549 1549 1549 1550
1528 1530 1532 1533 1534 1535 1536 1536 1537 1537 1538 1538 1539 1539 1539 1539 1540 1540 1540 1540 1541 1541 1541 1542 1542 1543 1543 1544 1544 1545 1545 1546 1547 1547 1548 1549 1549 1550 1550 1550 1550 1551 1551
1528 1530 1532 1533 1534 1535 1536 1536 1537 1537 1538 1538 1539 1539 1539 1539 1539 1540 1540 1540 1541 1541 1541 1542 1542 1543 1543 1544 1544 1545 1546 1547 1547 1548 1549 1549 1550 1550 1551 1551 1551 1552 1552
1528 1530 1532 1533 1534 1535 1536 1536 1537 1537 1538 1538 1539 1539 1539 1540 1540 1540 1540 1540 1541 1541 1542 1542 1542 1543 1543 1544 1544 1545 1546 1547 1548 1548 1549 1550 1550 1551 1551 1552 1552 1552 1553
1528 1530 1531 1533 1534 1535 1535 1536 1536 1537 1538 1538 1538 1539 1539 1540 1540 1540 1540 1540 1541 1541 1542 1542 1542 1542 1543 1544 1544 1545 1546 1547 1548 1548 1549 1550 1551 1551 1552 1552 1552 1553 1553
1528 1529 1531 1532 1533 1534 1535 1536 1536 1537 1537 1538 1538 1538 1539 1539 1540 1540 1540 1540 1540 1541 1541 1542 1542 1542 1543 1543 1544 1545 1545 1546 1547 1548 1549 1550 1550 1551 1552 1552 1553 1553 1554
1527 1528 1530 1531 1532 1533 1534 1535 1536 1536 1537 1537 1538 1538 1538 1539 1539 1540 1540 1540 1540 1541 1541 1541 1542 1542 1543 1543 1544 1545 1545 1546 1547 1547 1548 1549 1550 1551 1551 1552 1552 1553 1554
1526 1527 1529 1530 1531 1533 1534 1534 1535 1536 1536 1537 1537 1537 1538 1538 1538 1539 1539 1540 1540 1540 1541 1541 1541 1542 1542 1543 1543 1544 1545 1545 1546 1547 1548 1549 1549 1550 1551 1551 1552 1553 1553
1524 1526 1528 1529 1531 1532 1533 1534 1534 1535 1536 1536 1537 1537 1537 1537 1538 1538 1539 1539 1540 1540 1540 1540 1541 1541 1542 1542 1543 1544 1544 1545 1545 1546 1547 1548 1549 1549 1550 1551 1551 1552 1553
1523 1525 1527 1528 1530 1531 1532 1533 1533 1534 1535 1535 1536 1536 1536 1537 1537 1537 1538 1538 1539 1539 1539 1539 1540 1541 1541 1542 1542 1543 1543 1544 1544 1545 1545 1547 1547 1548 1549 1549 1550 1551 1552
1522 1524 1526 1527 1528 1529 1531 1532 1532 1533 1534 1534 1535 1535 1535 1536 1536 1536 1537 1537 1537 1538 1538 1538 1538 1539 1540 1541 1541 1542 1542 1543 1543 1544 1544 1545 1546 1547 1548 1548 1549 1550 1551
1520 1522 1524 1526 1527 1528 1529 1530 1531 1532 1532 1533 1533 1534 1534 1535 1535 1535 1536 1536 1536 1536 1537 1537 1537 1538 1539 1539 1540 1540 1541 1541 1542 1542 1543 1544 1544 1545 1546 1547 1548 1549 1550
1518 1520 1522 1524 1525 1526 1527 1528 1529 1530 1531 1531 1532 1533 1533 1533 1534 1534 1534 1535 1535 1535 1535 1536 1536 1537 1537 1538 1538 1539 1539 1540 1540 1540 1541 1542 1542 1543 1544 1545 1546 1547 1548
1516 1518 1520 1522 1523 1525 1526 1527 1528 1529 1529 1530 1530 1531 1532 1532 1532 1533 1533 1533 1533 1533 1534 1534 1535 1535 1535 1535 1536 1537 1537 1538 1538 1538 1539 1539 1540 1541 1542 1542 1543 1544 1545
1514 1516 1518 1519 1521 1522 1523 1525 1526 1526 1527 1528 1528 1529 1530 1530 1530 1531 1531 1531 1531 1532 1532 1532 1532 1533 1533 1533 1534 1534 1535 1535 1536 1536 1537 1537 1538 1539 1539 1540 1541 1542 1543
1512 1514 1515 1517 1518 1520 1521 1522 1523 1524 1525 1526 1526 1527 1527 1528 1528 1529 1529 1529 1529 1529 1530 1530 1530 1530 1530 1531 1531 1532 1532 1533 1533 1534 1535 1535 1536 1536 1537 1537 1538 1539 1540
1510 1512 1513 1515 1516 1518 1519 1520 1521 1522 1523 1523 1524 1524 1524 1525 1526 1526 1526 1527 1527 1527 1527 1528 1528 1528 1528 1529 1529 1529 1530 1531 1531 1532 1532 1533 1533 1534 1535 1535 1536 1536 1537
1508 1510 1511 1512 1514 1515 1516 1517 1518 1519 1520 1521 1521 1521 1522 1522 1523 1523 1524 1524 1524 1525 1525 1525 1525 1526 1526 1526 1526 1526 1527 1528 1528 1529 1530 1530 1531 1531 1532 1533 1533 1533 1534
1506 1507 1509 1510 1511 1513 1514 1515 1516 1516 1517 1518 1518 1518 1519 1519 1520 1520 1521 1521 1521 1522 1522 1522 1523 1523 1523 1524 1524 1524 1524 1525 1525 1526 1526 1527 1528 1528 1529 1530 1530 1531 1531
1504 1505 1507 1508 1509 1510 1511 1512 1513 1514 1514 1515 1515 1515 1516 1516 1517 1517 1517 1518 1518 1519 1519 1519 1520 1520 1519 1521 1522 1523 1522 1521 1521 1522 1522 1523 1524 1525 1526 1526 1527 1527 1528
1501 1503 1505 1506 1507 1508 1509 1510 1510 1510 1511 1511 1512 1512 1513 1514 1514 1514 1514 1515 1515 1515 1516 1516 1517 1517 1517 1517 1518 1519 1520 1520 1520 1518 1519 1520 1521 1521 1522 1523 1523 1524 1524
1499 1501 1502 1503 1504 1506 1507 1507 1507 1508 1508 1509 1509 1509 1510 1510 1511 1511 1511 1512 1512 1512 1512 1513 1513 1514 1514 1514 1515 1515 1516 1517 1516 1516 1515 1515 1516 1517 1518 1519 1520 1520 1520
1496 1498 1499 1500 1502 1503 1504 1504 1505 1505 1505 1505 1505 1505 1506 1506 1507 1507 1508 1508 1508 1508 1508 1509 1509 1510 1510 1511 1511 1512 1512 1513 1513 1513 1512 1511 1511 1512 1513 1514 1515 1515 1516